Time,TemperatureF,DewpointF,PressureIn,WindDirection,WindDirectionDegrees,WindSpeedMPH,WindSpeedGustMPH,Humidity,HourlyPrecipIn,Conditions,Clouds,dailyrainin,SoftwareType,DateUTC
2013-12-18 00:05:00,30.6,20.0,30.10,North,9,13.0,21.0,66,0.00,,,0.00,weatherlink.com 1.10,2013-12-18 05:05:00,
2013-12-18 00:19:00,30.2,20.0,30.10,NW,307,8.0,24.0,65,0.00,,,0.00,weatherlink.com 1.10,2013-12-18 05:19:00,
2013-12-18 00:35:00,29.8,19.0,30.11,NNW,327,3.0,29.0,65,0.00,,,0.00,weatherlink.com 1.10,2013-12-18 05:35:00,
2013-12-18 00:50:00,29.4,19.0,30.11,North,5,8.0,21.0,66,0.00,,,0.00,weatherlink.com 1.10,2013-12-18 05:50:00,
2013-12-18 01:05:00,28.9,19.0,30.11,North,355,13.0,23.0,67,0.00,,,0.00,weatherlink.com 1.10,2013-12-18 06:05:00,
2013-12-18 01:20:00,28.6,20.0,30.12,NNE,30,5.0,26.0,69,0.00,,,0.00,weatherlink.com 1.10,2013-12-18 06:20:00,
2013-12-18 01:35:00,28.3,19.0,30.13,North,355,6.0,22.0,69,0.00,,,0.00,weatherlink.com 1.10,2013-12-18 06:35:00,
2013-12-18 01:50:00,27.9,19.0,30.13,North,355,8.0,20.0,70,0.00,,,0.00,weatherlink.com 1.10,2013-12-18 06:50:00,
2013-12-18 02:05:00,27.5,20.0,30.14,NNE,29,11.0,19.0,72,0.00,,,0.00,weatherlink.com 1.10,2013-12-18 07:05:00,
2013-12-18 02:20:00,27.1,19.0,30.13,NE,34,25.0,25.0,72,0.00,,,0.00,weatherlink.com 1.10,2013-12-18 07:20:00,
2013-12-18 02:36:00,26.8,19.0,30.13,North,360,11.0,24.0,72,0.00,,,0.00,weatherlink.com 1.10,2013-12-18 07:36:00,
2013-12-18 02:51:00,26.5,19.0,30.13,NNE,28,13.0,29.0,74,0.00,,,0.00,weatherlink.com 1.10,2013-12-18 07:51:00,
2013-12-18 03:06:00,26.1,20.0,30.13,NNW,344,8.0,24.0,76,0.00,,,0.00,weatherlink.com 1.10,2013-12-18 08:06:00,
2013-12-18 03:21:00,25.8,20.0,30.13,NNE,12,8.0,24.0,77,0.00,,,0.00,weatherlink.com 1.10,2013-12-18 08:21:00,
2013-12-18 03:36:00,25.7,20.0,30.13,North,355,10.0,27.0,78,0.00,,,0.00,weatherlink.com 1.10,2013-12-18 08:36:00,
2013-12-18 03:51:00,25.5,20.0,30.13,North,360,3.0,21.0,79,0.00,,,0.00,weatherlink.com 1.10,2013-12-18 08:51:00,
2013-12-18 04:06:00,25.2,20.0,30.14,NNE,13,10.0,23.0,79,0.00,,,0.00,weatherlink.com 1.10,2013-12-18 09:06:00,
2013-12-18 04:21:00,25.1,19.0,30.14,North,5,9.0,25.0,78,0.00,,,0.00,weatherlink.com 1.10,2013-12-18 09:21:00,
2013-12-18 04:36:00,24.8,19.0,30.14,NNE,15,9.0,20.0,79,0.00,,,0.00,weatherlink.com 1.10,2013-12-18 09:36:00,
2013-12-18 04:51:00,24.7,18.0,30.15,North,355,12.0,22.0,77,0.00,,,0.00,weatherlink.com 1.10,2013-12-18 09:51:00,
2013-12-18 05:06:00,24.6,18.0,30.15,North,5,6.0,22.0,76,0.00,,,0.00,weatherlink.com 1.10,2013-12-18 10:06:00,
2013-12-18 05:21:00,24.5,17.0,30.16,North,360,13.0,22.0,74,0.00,,,0.00,weatherlink.com 1.10,2013-12-18 10:21:00,
2013-12-18 05:36:00,24.3,17.0,30.17,NNW,343,14.0,18.0,73,0.00,,,0.00,weatherlink.com 1.10,2013-12-18 10:36:00,
2013-12-18 05:51:00,24.3,16.0,30.17,NNE,15,13.0,22.0,72,0.00,,,0.00,weatherlink.com 1.10,2013-12-18 10:51:00,
2013-12-18 06:06:00,23.9,17.0,30.18,North,10,6.0,22.0,74,0.00,,,0.00,weatherlink.com 1.10,2013-12-18 11:06:00,
2013-12-18 06:21:00,23.7,17.0,30.18,NNW,342,8.0,21.0,74,0.00,,,0.00,weatherlink.com 1.10,2013-12-18 11:21:00,
2013-12-18 06:36:00,23.5,16.0,30.18,NW,314,4.0,16.0,73,0.00,,,0.00,weatherlink.com 1.10,2013-12-18 11:36:00,
2013-12-18 06:51:00,23.4,16.0,30.20,North,360,4.0,21.0,72,0.00,,,0.00,weatherlink.com 1.10,2013-12-18 11:51:00,
2013-12-18 07:06:00,23.4,15.0,30.21,West,276,6.0,20.0,70,0.00,,,0.00,weatherlink.com 1.10,2013-12-18 12:06:00,
2013-12-18 07:21:00,23.5,15.0,30.23,NNW,335,5.0,21.0,69,0.00,,,0.00,weatherlink.com 1.10,2013-12-18 12:21:00,
2013-12-18 07:36:00,23.2,15.0,30.25,NW,312,1.0,17.0,70,0.00,,,0.00,weatherlink.com 1.10,2013-12-18 12:36:00,
2013-12-18 07:51:00,23.7,15.0,30.25,WNW,292,6.0,15.0,69,0.00,,,0.00,weatherlink.com 1.10,2013-12-18 12:51:00,
2013-12-18 08:06:00,24.3,15.0,30.25,NNE,29,3.0,13.0,69,0.00,,,0.00,weatherlink.com 1.10,2013-12-18 13:06:00,
2013-12-18 08:21:00,24.9,15.0,30.27,ENE,69,5.0,14.0,67,0.00,,,0.00,weatherlink.com 1.10,2013-12-18 13:21:00,
2013-12-18 08:36:00,25.7,15.0,30.27,North,360,9.0,13.0,65,0.00,,,0.00,weatherlink.com 1.10,2013-12-18 13:36:00,
2013-12-18 08:51:00,26.4,16.0,30.28,NE,35,2.0,15.0,64,0.00,,,0.00,weatherlink.com 1.10,2013-12-18 13:51:00,
2013-12-18 09:06:00,27.5,15.0,30.30,NW,325,5.0,18.0,60,0.00,,,0.00,weatherlink.com 1.10,2013-12-18 14:06:00,
2013-12-18 09:22:00,28.5,15.0,30.30,NW,324,3.0,17.0,58,0.00,,,0.00,weatherlink.com 1.10,2013-12-18 14:22:00,
2013-12-18 09:37:00,29.0,15.0,30.31,NW,323,5.0,11.0,56,0.00,,,0.00,weatherlink.com 1.10,2013-12-18 14:37:00,
2013-12-18 09:52:00,29.7,16.0,30.31,NNE,13,5.0,13.0,56,0.00,,,0.00,weatherlink.com 1.10,2013-12-18 14:52:00,
2013-12-18 10:07:00,30.2,15.0,30.33,WNW,292,4.0,15.0,54,0.00,,,0.00,weatherlink.com 1.10,2013-12-18 15:07:00,
2013-12-18 10:22:00,31.0,15.0,30.34,WSW,241,9.0,18.0,51,0.00,,,0.00,weatherlink.com 1.10,2013-12-18 15:22:00,
2013-12-18 10:37:00,31.8,15.0,30.34,NE,35,5.0,15.0,50,0.00,,,0.00,weatherlink.com 1.10,2013-12-18 15:37:00,
2013-12-18 10:52:00,32.1,14.0,30.35,SSW,200,1.0,15.0,47,0.00,,,0.00,weatherlink.com 1.10,2013-12-18 15:52:00,
2013-12-18 11:07:00,32.7,12.0,30.35,North,355,2.0,15.0,43,0.00,,,0.00,weatherlink.com 1.10,2013-12-18 16:07:00,
2013-12-18 11:22:00,33.2,14.0,30.35,WSW,246,9.0,15.0,46,0.00,,,0.00,weatherlink.com 1.10,2013-12-18 16:22:00,
2013-12-18 11:36:00,34.0,13.0,30.36,WSW,251,7.0,14.0,42,0.00,,,0.00,weatherlink.com 1.10,2013-12-18 16:36:00,
2013-12-18 11:51:00,34.9,12.0,30.36,WSW,239,4.0,12.0,39,0.00,,,0.00,weatherlink.com 1.10,2013-12-18 16:51:00,
2013-12-18 12:07:00,35.0,11.0,30.36,NNW,338,4.0,15.0,37,0.00,,,0.00,weatherlink.com 1.10,2013-12-18 17:07:00,
2013-12-18 12:22:00,35.8,10.0,30.36,NE,54,3.0,8.0,35,0.00,,,0.00,weatherlink.com 1.10,2013-12-18 17:22:00,
2013-12-18 12:37:00,36.3,8.0,30.36,NNW,335,6.0,10.0,31,0.00,,,0.00,weatherlink.com 1.10,2013-12-18 17:37:00,
2013-12-18 12:52:00,37.6,9.0,30.36,NNW,342,2.0,10.0,31,0.00,,,0.00,weatherlink.com 1.10,2013-12-18 17:52:00,
2013-12-18 13:07:00,37.5,9.0,30.36,WNW,294,2.0,13.0,31,0.00,,,0.00,weatherlink.com 1.10,2013-12-18 18:07:00,
2013-12-18 13:22:00,38.6,10.0,30.36,WNW,292,2.0,10.0,30,0.00,,,0.00,weatherlink.com 1.10,2013-12-18 18:22:00,
2013-12-18 13:37:00,38.7,10.0,30.36,WNW,298,4.0,11.0,30,0.00,,,0.00,weatherlink.com 1.10,2013-12-18 18:37:00,
2013-12-18 13:53:00,39.0,11.0,30.36,NNW,329,7.0,13.0,32,0.00,,,0.00,weatherlink.com 1.10,2013-12-18 18:53:00,
2013-12-18 14:08:00,39.1,10.0,30.38,WNW,284,3.0,10.0,30,0.00,,,0.00,weatherlink.com 1.10,2013-12-18 19:08:00,
2013-12-18 14:23:00,39.6,10.0,30.38,NNW,333,8.0,8.0,30,0.00,,,0.00,weatherlink.com 1.10,2013-12-18 19:23:00,
2013-12-18 14:38:00,38.8,11.0,30.38,West,281,7.0,10.0,32,0.00,,,0.00,weatherlink.com 1.10,2013-12-18 19:38:00,
2013-12-18 14:53:00,39.4,11.0,30.38,WNW,299,2.0,10.0,31,0.00,,,0.00,weatherlink.com 1.10,2013-12-18 19:53:00,
2013-12-18 15:08:00,39.5,12.0,30.39,West,269,5.0,12.0,32,0.00,,,0.00,weatherlink.com 1.10,2013-12-18 20:08:00,
2013-12-18 15:23:00,39.3,12.0,30.39,NW,305,4.0,5.0,33,0.00,,,0.00,weatherlink.com 1.10,2013-12-18 20:23:00,
2013-12-18 15:38:00,39.2,10.0,30.39,NNW,348,4.0,8.0,30,0.00,,,0.00,weatherlink.com 1.10,2013-12-18 20:38:00,
2013-12-18 15:53:00,38.6,12.0,30.39,NNE,28,3.0,4.0,33,0.00,,,0.00,weatherlink.com 1.10,2013-12-18 20:53:00,
2013-12-18 16:07:00,38.0,11.0,30.40,North,5,2.0,7.0,33,0.00,,,0.00,weatherlink.com 1.10,2013-12-18 21:07:00,
2013-12-18 16:22:00,37.5,11.0,30.41,North,355,2.0,8.0,33,0.00,,,0.00,weatherlink.com 1.10,2013-12-18 21:22:00,
2013-12-18 16:37:00,36.5,10.0,30.41,North,5,1.0,7.0,34,0.00,,,0.00,weatherlink.com 1.10,2013-12-18 21:37:00,
2013-12-18 16:52:00,35.0,13.0,30.41,NE,44,3.0,8.0,41,0.00,,,0.00,weatherlink.com 1.10,2013-12-18 21:52:00,
2013-12-18 17:07:00,33.3,15.0,30.42,NE,38,2.0,5.0,48,0.00,,,0.00,weatherlink.com 1.10,2013-12-18 22:07:00,
2013-12-18 17:22:00,32.6,16.0,30.42,North,5,4.0,7.0,50,0.00,,,0.00,weatherlink.com 1.10,2013-12-18 22:22:00,
2013-12-18 17:37:00,31.6,16.0,30.42,North,5,4.0,7.0,52,0.00,,,0.00,weatherlink.com 1.10,2013-12-18 22:37:00,
2013-12-18 17:52:00,31.0,16.0,30.42,North,355,4.0,6.0,54,0.00,,,0.00,weatherlink.com 1.10,2013-12-18 22:52:00,
2013-12-18 18:07:00,30.7,16.0,30.42,NNE,12,5.0,6.0,54,0.00,,,0.00,weatherlink.com 1.10,2013-12-18 23:07:00,
2013-12-18 18:22:00,30.5,16.0,30.43,North,5,5.0,6.0,56,0.00,,,0.00,weatherlink.com 1.10,2013-12-18 23:22:00,
2013-12-18 18:37:00,30.4,17.0,30.43,North,5,4.0,7.0,57,0.00,,,0.00,weatherlink.com 1.10,2013-12-18 23:37:00,
2013-12-18 18:52:00,30.0,17.0,30.44,North,11,4.0,7.0,59,0.00,,,0.00,weatherlink.com 1.10,2013-12-18 23:52:00,
2013-12-18 19:07:00,30.0,17.0,30.44,North,355,5.0,8.0,59,0.00,,,0.00,weatherlink.com 1.10,2013-12-19 00:07:00,
2013-12-18 19:22:00,30.2,17.0,30.44,North,355,5.0,8.0,58,0.00,,,0.00,weatherlink.com 1.10,2013-12-19 00:22:00,
2013-12-18 19:37:00,30.0,17.0,30.45,North,360,6.0,7.0,58,0.00,,,0.00,weatherlink.com 1.10,2013-12-19 00:37:00,
2013-12-18 19:53:00,29.8,17.0,30.45,North,5,6.0,8.0,59,0.00,,,0.00,weatherlink.com 1.10,2013-12-19 00:53:00,
2013-12-18 20:08:00,29.9,17.0,30.46,NNE,19,6.0,9.0,58,0.00,,,0.00,weatherlink.com 1.10,2013-12-19 01:08:00,
2013-12-18 20:23:00,29.9,16.0,30.46,North,5,6.0,8.0,57,0.00,,,0.00,weatherlink.com 1.10,2013-12-19 01:23:00,
2013-12-18 20:38:00,29.8,17.0,30.46,NNE,24,5.0,7.0,58,0.00,,,0.00,weatherlink.com 1.10,2013-12-19 01:38:00,
2013-12-18 20:53:00,29.4,17.0,30.46,North,360,7.0,8.0,59,0.00,,,0.00,weatherlink.com 1.10,2013-12-19 01:53:00,
2013-12-18 21:08:00,29.4,17.0,30.46,North,5,6.0,7.0,59,0.00,,,0.00,weatherlink.com 1.10,2013-12-19 02:08:00,
2013-12-18 21:23:00,29.8,16.0,30.46,NNW,344,4.0,8.0,56,0.00,,,0.00,weatherlink.com 1.10,2013-12-19 02:23:00,
2013-12-18 21:38:00,30.1,16.0,30.45,NNE,24,5.0,7.0,55,0.00,,,0.00,weatherlink.com 1.10,2013-12-19 02:38:00,
2013-12-18 21:53:00,30.7,14.0,30.45,NNW,333,6.0,7.0,51,0.00,,,0.00,weatherlink.com 1.10,2013-12-19 02:53:00,
2013-12-18 22:08:00,31.9,12.0,30.46,NNW,348,5.0,6.0,44,0.00,,,0.00,weatherlink.com 1.10,2013-12-19 03:08:00,
2013-12-18 22:23:00,32.8,10.0,30.46,North,351,4.0,6.0,39,0.00,,,0.00,weatherlink.com 1.10,2013-12-19 03:23:00,
2013-12-18 22:38:00,33.4,10.0,30.47,NNW,344,4.0,6.0,37,0.00,,,0.00,weatherlink.com 1.10,2013-12-19 03:38:00,
2013-12-18 22:53:00,33.3,9.0,30.47,North,351,5.0,7.0,36,0.00,,,0.00,weatherlink.com 1.10,2013-12-19 03:53:00,
2013-12-18 23:08:00,34.2,7.0,30.47,North,355,2.0,5.0,32,0.00,,,0.00,weatherlink.com 1.10,2013-12-19 04:08:00,
2013-12-18 23:23:00,35.7,10.0,30.47,North,355,1.0,4.0,34,0.00,,,0.00,weatherlink.com 1.10,2013-12-19 04:23:00,
2013-12-18 23:38:00,35.6,12.0,30.47,North,355,4.0,5.0,38,0.00,,,0.00,weatherlink.com 1.10,2013-12-19 04:38:00,
2013-12-18 23:53:00,36.2,12.0,30.47,North,355,2.0,4.0,37,0.00,,,0.00,weatherlink.com 1.10,2013-12-19 04:53:00,